Date String (YYYY-MM-DD hh:mm:ss) UTC,Instrument flags,Ambient pressure (hPa),Sample flow (lpm),Bypass flow (lpm),Sample temperature (°C),Ambient temperature (°C),ASC tube jacket temperature (°C),LED temperature (°C),Box temperature (°C),Sample RH (%),Span deviation,Mass concentration (μg/m³),Mass concentration (μg/m³),Mass concentration (μg/m³)
DateTimeUTC,F1_M11,P_M11,Q1_M11,Q2_M11,T1_M11,T2_M11,T3_M11,T4_M11,T5_M11,U1_M11,ZSPAN_M11,X0_M11,X2_M11,X1_M11
2022-07-21 16:00:00,,0828.9,5.00,0.00,29.6,28.2,00.0,38.3,31.5,28.6,0000.0,0022.61,0007.19,0005.12
2022-07-21 16:01:00,,0828.9,5.00,0.00,29.6,27.8,00.0,38.2,31.5,28.8,0000.0,0022.20,0007.14,0005.11
2022-07-21 16:02:00,,0828.9,5.00,0.00,29.6,27.3,00.0,38.2,31.4,28.4,0000.0,0022.25,0007.08,0005.09
2022-07-21 16:03:00,,0828.9,5.00,0.00,29.6,27.3,00.0,38.2,31.4,28.3,0000.0,0022.62,0006.97,0005.08
2022-07-21 16:04:00,,0828.8,4.99,0.00,29.5,27.4,00.0,38.2,31.3,28.1,0000.0,0022.97,0006.90,0005.09
2022-07-21 16:05:00,,0828.8,5.00,0.00,29.5,27.5,00.0,38.2,31.3,28.4,0000.0,0022.83,0006.81,0005.10
2022-07-21 16:06:00,,0828.9,5.00,0.00,29.5,27.7,00.0,38.2,31.3,28.1,0000.0,0022.16,0006.82,0005.10
2022-07-21 16:07:00,,0828.8,5.00,0.00,29.5,27.9,00.0,38.2,31.4,28.1,0000.0,0021.51,0006.84,0005.09
2022-07-21 16:08:00,,0828.9,4.98,0.00,29.5,28.0,00.0,38.2,31.4,28.2,0000.0,0020.82,0006.85,0005.10
2022-07-21 16:09:00,,0828.8,5.01,0.00,29.5,28.2,00.0,38.2,31.5,28.9,0000.0,0019.79,0006.79,0005.09
2022-07-21 16:10:00,,0828.9,4.99,0.00,29.6,28.3,00.0,38.2,31.5,28.1,0000.0,0019.77,0006.76,0005.08
2022-07-21 16:11:00,,0829.0,5.00,0.00,29.6,27.9,00.0,38.2,31.5,28.1,0000.0,0018.33,0006.65,0005.07
2022-07-21 16:12:00,,0829.1,5.01,0.00,29.6,27.4,00.0,38.2,31.4,28.5,0000.0,0017.80,0006.62,0005.08
2022-07-21 16:13:00,,0829.3,4.98,0.00,29.5,27.3,00.0,38.2,31.4,29.5,0000.0,0017.65,0006.68,0005.09
2022-07-21 16:14:00,,0829.2,5.01,0.00,29.5,27.4,00.0,38.2,31.3,30.0,0000.0,0017.77,0006.72,0005.10
2022-07-21 16:15:00,,0829.3,5.00,0.00,29.5,27.6,00.0,38.2,31.3,29.6,0000.0,0017.38,0006.74,0005.10
2022-07-21 16:16:00,,0829.2,5.00,0.00,29.5,27.7,00.0,38.2,31.3,29.3,0000.0,0017.19,0006.76,0005.10
2022-07-21 16:17:00,,0829.0,5.00,0.00,29.5,27.9,00.0,38.2,31.4,28.8,0000.0,0016.99,0006.72,0005.11
2022-07-21 16:18:00,,0829.3,5.00,0.00,29.5,28.1,00.0,38.2,31.4,28.8,0000.0,0016.64,0006.70,0005.11
2022-07-21 16:19:00,,0828.8,4.99,0.00,29.5,28.2,00.0,38.2,31.5,28.7,0000.0,0017.41,0006.75,0005.11
2022-07-21 16:20:00,,0828.7,5.00,0.00,29.6,27.8,00.0,38.2,31.5,28.2,0000.0,0017.85,0006.79,0005.11
2022-07-21 16:21:00,,0828.7,5.01,0.00,29.5,27.3,00.0,38.1,31.4,28.1,0000.0,0017.15,0006.76,0005.12
2022-07-21 16:22:00,,0828.9,4.99,0.00,29.5,27.2,00.0,38.1,31.3,27.9,0000.0,0017.07,0006.77,0005.11
2022-07-21 16:23:00,,0828.8,5.00,0.00,29.5,27.3,00.0,38.1,31.3,27.8,0000.0,0017.37,0006.79,0005.10
2022-07-21 16:24:00,,0829.1,5.01,0.00,29.4,27.5,00.0,38.1,31.3,27.7,0000.0,0018.18,0006.73,0005.09
2022-07-21 16:25:00,,0829.0,4.99,0.00,29.4,27.6,00.0,38.2,31.3,28.1,0000.0,0017.67,0006.72,0005.07
2022-07-21 16:26:00,,0829.1,5.00,0.00,29.4,27.8,00.0,38.2,31.3,27.9,0000.0,0017.43,0006.72,0005.06
2022-07-21 16:27:00,,0829.1,5.00,0.00,29.5,28.0,00.0,38.2,31.4,28.2,0000.0,0018.04,0006.78,0005.06
2022-07-21 16:28:00,,0829.1,5.00,0.00,29.5,28.1,00.0,38.2,31.4,28.1,0000.0,0018.74,0006.84,0005.05
2022-07-21 16:29:00,,0829.1,5.00,0.00,29.5,27.8,00.0,38.1,31.4,27.8,0000.0,0019.11,0006.84,0005.04
2022-07-21 16:30:00,,0828.9,5.01,0.00,29.5,27.3,00.0,38.1,31.3,27.6,0000.0,0018.05,0006.81,0005.03
2022-07-21 16:31:00,,0828.8,4.99,0.00,29.4,27.2,00.0,38.1,31.3,27.2,0000.0,0016.98,0006.79,0005.03
2022-07-21 16:32:00,,0828.7,5.00,0.00,29.4,27.3,00.0,38.1,31.2,27.1,0000.0,0017.28,0006.86,0005.02
2022-07-21 16:33:00,,0828.8,4.99,0.00,29.4,27.4,00.0,38.1,31.2,27.1,0000.0,0017.16,0006.85,0005.03
2022-07-21 16:34:00,,0828.7,5.00,0.00,29.4,27.6,00.0,38.1,31.3,27.2,0000.0,0017.12,0006.82,0005.03
2022-07-21 16:35:00,,0828.7,5.01,0.00,29.4,27.8,00.0,38.1,31.3,27.0,0000.0,0016.47,0006.85,0005.04
2022-07-21 16:36:00,,0828.7,5.01,0.00,29.4,28.0,00.0,38.1,31.3,26.6,0000.0,0016.73,0006.82,0005.04
2022-07-21 16:37:00,,0828.7,4.99,0.00,29.4,28.1,00.0,38.1,31.4,26.3,0000.0,0016.86,0006.74,0005.02
2022-07-21 16:38:00,,0828.7,5.00,0.00,29.5,27.8,00.0,38.1,31.4,25.8,0000.0,0016.31,0006.67,0005.00
2022-07-21 16:39:00,,0828.7,5.00,0.00,29.4,27.2,00.0,38.1,31.3,25.5,0000.0,0016.28,0006.65,0004.99
2022-07-21 16:40:00,,0828.7,5.00,0.00,29.4,27.1,00.0,38.0,31.2,25.5,0000.0,0016.05,0006.58,0004.98
2022-07-21 16:41:00,,0828.7,4.99,0.00,29.4,27.1,00.0,38.0,31.2,25.5,0000.0,0016.20,0006.53,0004.97
2022-07-21 16:42:00,,0828.7,5.00,0.00,29.3,27.3,00.0,38.1,31.2,25.6,0000.0,0016.33,0006.46,0004.95
2022-07-21 16:43:00,,0828.7,5.00,0.00,29.3,27.5,00.0,38.1,31.2,25.3,0000.0,0016.01,0006.34,0004.94
2022-07-21 16:44:00,,0828.8,5.01,0.00,29.3,27.7,00.0,38.1,31.2,25.1,0000.0,0015.68,0006.29,0004.91
2022-07-21 16:45:00,,0828.8,5.00,0.00,29.4,27.9,00.0,38.1,31.3,24.9,0000.0,0015.74,0006.34,0004.89
2022-07-21 16:46:00,,0829.1,5.00,0.00,29.4,28.0,00.0,38.1,31.4,24.2,0000.0,0016.31,0006.36,0004.86
2022-07-21 16:47:00,,0829.1,4.99,0.00,29.4,27.8,00.0,38.1,31.4,24.0,0000.0,0016.11,0006.37,0004.86
2022-07-21 16:48:00,,0828.8,5.01,0.00,29.4,27.3,00.0,38.0,31.3,24.0,0000.0,0015.46,0006.44,0004.87
2022-07-21 16:49:00,,0829.0,4.99,0.00,29.4,27.1,00.0,38.0,31.2,23.9,0000.0,0015.47,0006.45,0004.88
2022-07-21 16:50:00,,0828.6,5.00,0.00,29.3,27.2,00.0,38.0,31.2,23.2,0000.0,0015.15,0006.39,0004.87
2022-07-21 16:51:00,,0828.9,5.00,0.00,29.3,27.4,00.0,38.0,31.2,23.1,0000.0,0015.02,0006.40,0004.87
2022-07-21 16:52:00,,0828.9,5.01,0.00,29.3,27.6,00.0,38.0,31.2,23.1,0000.0,0014.83,0006.41,0004.86
2022-07-21 16:53:00,,0828.9,4.99,0.00,29.3,27.8,00.0,38.0,31.2,23.3,0000.0,0014.55,0006.49,0004.87
2022-07-21 16:54:00,,0829.2,5.00,0.00,29.4,27.9,00.0,38.1,31.3,23.3,0000.0,0014.55,0006.56,0004.90
2022-07-21 16:55:00,,0828.8,5.00,0.00,29.4,28.0,00.0,38.1,31.3,22.8,0000.0,0015.16,0006.61,0004.92
2022-07-21 16:56:00,,0828.8,5.00,0.00,29.4,27.5,00.0,38.0,31.3,22.9,0000.0,0016.30,0006.62,0004.94
2022-07-21 16:57:00,,0828.9,5.00,0.00,29.4,27.1,00.0,38.0,31.2,23.0,0000.0,0016.06,0006.58,0004.96
2022-07-21 16:58:00,,0828.7,4.99,0.00,29.3,27.1,00.0,38.0,31.2,23.4,0000.0,0016.44,0006.57,0004.96
2022-07-21 16:59:00,,0829.0,5.00,0.00,29.3,27.3,00.0,38.0,31.1,23.8,0000.0,0016.94,0006.53,0004.97
